Погода в Бужумбуре

Бурунди     3°22′11″S   29°22′20″E
В апреле 2022 года жителям России запретили посещать сайт meteo.paraplan.net по решению Генеральной прокуратуры. Аудитория сайта уменьшилась в 10 раз. Владельцы сайта не видят смысла в поддержке погодного сервера в таких условиях. Сайт будет закрыт в октябре.
темп.,
°C
ветер,
м/с
пор.,
м/с
влажн.,
%
обл.,
%
осадки,
мм/ч
давл.,
гПа
погр.,
м
25 сентября, вс
вс2523:00+24ссз225328 0.1 101132
02:00+24с235249 0.0 1009100
05:00+22с125366 0.0 101141
08:00+26ссз1142100 0.0 1013542
11:00+30ю6534100 0.0 10111752
14:00+29ююв6539100 0.0 1008802
17:00+28ю2338100 0.0 1007377
20:00+25з0146100 0.0 101012
26 сентября, пн
пн2623:00+24ссз224630 0.0 101127
02:00+23с115092 0.0 100916
05:00+22ссз125298 0.0 101035
08:00+27с224026 0.0 1012613
11:00+32ююз452913 0.0 10102241
14:00+32ю763217 0.0 10061705
17:00+29ю233972 0.0 1007475
20:00+26всв114417 0.0 100922
27 сентября, вт
вт2723:00+26св11427 0.0 100921
02:00+24с224819 0.0 100923
05:00+23с224946 0.0 101043
08:00+27з114171 0.0 1013272
11:00+32ююз452843 0.0 10102002
14:00+30ююв453546 0.0 1008822
17:00+29ююз2335100 0.0 1007423
20:00+27ююз1344100 0.1 1009141
28 сентября, ср
ср2823:00+25всв1146100 0.0 101019
02:00+24с2247100 0.0 100928
05:00+23с2247100 0.0 101037
08:00+27зюз1239100 0.0 1012478
11:00+32ююз553090 0.0 10102054
14:00+31ююв553288 0.0 10071287
17:00+30ю223438 0.0 1006502
20:00+27з2242100 0.0 100959
29 сентября, чт
чт2923:00+25св1247100 0.1 100951
02:00+24ссв234995 0.1 100843
05:00+23св1150100 0.0 101020
08:00+26с1143100 0.0 1012298
11:00+27ююв464487 0.0 1012526
14:00+30ююв66344 0.0 10071158
17:00+27юв464138 0.0 1006471
20:00+25ю1149100 0.0 100916